Regional Weather Roundup
Issued by NWS Cleveland, OH

Home | Current Version | Previous Version | Graphics & Text | Print | Product List | Glossary On
Versions: 1 2 3 4 5 6 7 8 9 10 11 12 13 14 15 16 17 18 19 20 21 22 23 24 25 26 27 28 29 30 31 32 33 34 35 36 37 38 39 40 41 42 43 44 45 46 47 48 49 50
000
ASUS41 KCLE 230212
RWRCLE
OHIO REGIONAL WEATHER ROUNDUP
NATIONAL WEATHER SERVICE WILMINGTON, OH
1000 PM EDT TUE MAY 22 2018

NOTE: "FAIR" INDICATES FEW OR NO CLOUDS BELOW 12,000 FEET WITH NO
SIGNIFICANT WEATHER AND/OR OBSTRUCTIONS TO VISIBILITY.

OHZ001>008-015>018-024>027-034-035-043-044-230300-
   NORTHWEST OHIO

CITY           SKY/WX    TMP DP  RH WIND       PRES   REMARKS
DEFIANCE       CLOUDY    66  58  75 N12       30.03R
FINDLAY        MOCLDY    69  60  73 N10       30.00R
TOLEDO EXPRESS CLOUDY    65  58  78 N7        30.02R
TOLEDO EXEC    CLOUDY    65  55  70 N14       30.04R
LIMA           FAIR      66  60  81 NW13      30.02R
$$

OHZ009>014-019>023-028>033-038-089-230300-
   NORTHEAST OHIO

CITY           SKY/WX    TMP DP  RH WIND       PRES   REMARKS
CLE-HOPKINS    CLOUDY    64  61  90 N7        30.01R
CLE-LAKEFRONT  CLOUDY    60  58  92 N3        29.97R FOG
CUY CO. ARPT   MOCLDY    64  63  94 N7        29.98R FOG
LORAIN-ELYRIA  CLOUDY    63  58  83 N7        30.00R HAZE
ASHTABULA      CLOUDY    63  61  93 N3        29.99R FOG
AKRON-CANTON   MOCLDY    67  63  87 SW5       29.96R
WOOSTER        MOCLDY    67  63  87 N9        29.98R
MANSFIELD      FAIR      66  62  87 N15       30.00R
YOUNGSTOWN     CLOUDY    66  65  96 N9        29.97R FOG
$$

OHZ042-051>053-060>062-070>072-077>081-230300-
  SOUTHWEST OHIO

CITY           SKY/WX    TMP DP  RH WIND       PRES   REMARKS
CINC-COVINGTON FAIR      73  62  68 SE5       30.00R
CINC-LUNKEN    CLOUDY    69  68  96 CALM      30.00R
HAMILTON       CLOUDY    76  65  68 NW3       30.00R
DAYTON         FAIR      70  62  76 N10       30.02R
WRIGHT-PAT AFB FAIR      73  60  61 N8G22     30.00R
DAYTON GENERAL FAIR      75  60  59 N8        29.99R
WILMINGTON     CLOUDY    74  65  73 N5        30.00R
$$

OHZ036-037-039>041-045>050-054>059-063>069-073>076-082>088-230300-
  CENTRAL AND SOUTHEAST OHIO

CITY           SKY/WX    TMP DP  RH WIND       PRES   REMARKS
COLUMBUS       FAIR      71  65  81 CALM      29.97R
OSU AIRPORT    FAIR      70  64  81 NW7       29.98R
BOLTON FIELD   FAIR      67  66  96 CALM      29.99R
RICKENBACK AFB MOCLDY    68  68 100 MISG      29.98R
NEWARK         FAIR      68  66  93 CALM      29.97R
MARION         FAIR      69  61  75 NW12      30.00R THUNDER
LANCASTER      MOCLDY    68  68 100 W5        29.98R
ZANESVILLE     FAIR      67  65  93 CALM      29.97R
NEW PHILLY     CLOUDY    66  65  96 CALM      29.98
$$



USA.gov is the U.S. government's official web portal to all federal, state and local government web resources and services.